Location: Pace/Milton
(30.6162°N, 87.1503°W)
Time: 10:04:49
(UTC-06:00)

Hubble Space Telescope - Pass Details

Date: 04 December 2021
Orbit: 534 x 538 km, 28.5° (Epoch: 18 January)

Event Time Altitude Azimuth Distance (km) Brightness Sun altitude
Exits shadow 05:28:29 12° 244° (WSW) 1,647 2.8 -13.3°
Maximum altitude 05:30:57 19° 203° (SSW) 1,299 2.7 -12.8°
Drops below altitude 10° 05:33:52 10° 157° (SSE) 1,770 4.0 -12.2°
Sets 05:36:37 0° 139° (SE) 2,658 5.5 -11.6°
